User: anonymous   Login
Location: Austin, TX
(30.3000°N, 97.7500°W)
Time: 21:09:39
(UTC-05:00)
Language:

Cosmos 2082 Rocket - Orbit

View from above orbital plane
View from above orbital plane
View from above satellite
View from above satellite

Ground track
Ground track

The orbit data is extracted from the following two-line orbital elements,

1 20625U 90046B   16209.93742659 -.00000133 +00000-0 -44109-4 0  9998
2 20625 070.9992 109.6652 0016257 243.4458 190.4861 14.14597540351720
Epoch (UTC): 27 July 2016 22:29:53
Eccentricity: 0.0016257
inclination: 70.9992°
perigee height: 832 km
apogee height: 855 km
right ascension of ascending node: 109.6652°
argument of perigee: 243.4458°
revolutions per day: 14.14597540
mean anomaly at epoch: 190.4861°
orbit number at epoch: 35172

The dashed part of the orbit path shows where the satellite is in the earth's shadow,  

DLR